1498885200.8,43196,16.0,73316.0,2.33,1.97,1.97,0,*76
1498885202.06,43197,16.0,73316.8,2.33,1.97,1.97,0,*77
1498885203.31,43198,16.0,73320.8,2.33,1.97,1.93,0,*7C
1498885204.56,43199,16.0,73316.8,2.33,1.93,1.97,0,*7D
1498885205.82,43200,16.0,73314.8,2.33,1.85,1.85,0,*7A
1498885207.06,43201,16.0,73316.5,2.33,1.85,1.83,0,*7D
1498885208.31,43202,16.0,73318.3,2.33,1.85,1.93,0,*7F
1498885209.56,43203,16.0,73312.8,2.33,1.97,2.01,0,*75
1498885210.79,43204,16.0,73316.5,2.35,1.97,1.97,0,*78
1498885212.04,43205,16.0,73314.8,2.33,1.93,1.93,0,*7F
1498885213.3,43206,16.0,73314.3,2.33,1.93,1.85,0,*7B
1498885214.55,43207,16.0,73316.8,2.33,1.93,1.97,0,*79
1498885215.77,43208,16.0,73316.8,2.35,2.01,1.97,0,*78
1498885217.0,43209,16.0,73316.5,2.35,2.01,1.97,0,*79
1498885218.22,43210,16.0,73318.3,2.35,1.97,2.01,0,*71
1498885219.45,43211,16.0,73316.5,2.35,2.01,2.01,0,*7C
1498885220.68,43212,16.0,73316.5,2.35,2.01,1.97,0,*73
1498885221.9,43213,16.0,73318.0,2.35,2.01,2.09,0,*76
1498885223.13,43214,16.0,73316.3,2.35,1.97,2.01,0,*75
1498885224.39,43215,16.0,73318.3,2.33,1.97,1.93,0,*7A
1498885225.61,43216,16.0,73318.3,2.35,2.01,2.01,0,*7B
1498885226.84,43217,16.0,73318.3,2.35,2.01,1.97,0,*76
1498885228.09,43218,16.0,73318.3,2.33,1.97,2.05,0,*7B
1498885229.32,43219,16.0,73318.3,2.35,2.01,2.01,0,*74
1498885230.54,43220,16.0,73316.5,2.35,1.97,1.89,0,*71
1498885231.77,43221,16.0,73316.8,2.35,2.01,2.01,0,*7F
1498885233.0,43222,16.0,73316.5,2.35,2.01,2.01,0,*7C
1498885234.22,43223,16.0,73318.0,2.35,2.01,2.01,0,*7D
1498885235.45,43224,16.0,73316.8,2.35,1.97,2.01,0,*76
1498885236.68,43225,16.0,73318.0,2.35,1.97,2.01,0,*77
1498885237.91,43226,16.0,73314.3,2.35,1.97,2.01,0,*74
1498885239.14,43227,16.0,73314.0,2.37,2.01,2.09,0,*73
1498885240.38,43228,16.0,73314.3,2.37,1.97,2.01,0,*78
1498885241.61,43229,16.0,73316.5,2.37,2.01,2.09,0,*7D
1498885242.84,43230,16.0,73314.8,2.37,2.01,2.09,0,*75
1498885244.08,43231,16.0,73316.0,2.37,2.01,2.09,0,*74
1498885245.31,43232,16.0,73316.3,2.37,2.09,2.01,0,*77
1498885246.53,43233,16.0,73316.5,2.35,1.97,1.97,0,*7C
1498885247.76,43234,16.0,73314.3,2.35,1.97,2.01,0,*77
1498885248.99,43235,16.0,73316.8,2.35,1.97,2.01,0,*76
1498885250.22,43236,16.0,73318.8,2.37,2.01,2.09,0,*73
1498885251.46,43237,16.0,73320.3,2.37,2.01,2.01,0,*7A
1498885252.69,43238,16.0,73318.3,2.37,1.97,1.97,0,*75
1498885253.94,43239,16.0,73318.5,2.39,2.01,2.05,0,*7E
1498885255.17,43240,16.0,73316.8,2.37,1.97,2.01,0,*76
1498885256.4,43241,16.0,73316.8,2.37,1.97,1.97,0,*7B
1498885257.64,43242,16.0,73320.0,2.37,1.97,2.01,0,*74
1498885258.87,43243,16.0,73320.3,2.37,1.97,1.97,0,*79
1498885260.11,43244,16.0,73316.5,2.39,1.89,1.89,0,*70
1498885261.31,43245,16.0,73318.5,2.37,1.79,1.89,0,*70
1498885262.52,43246,16.0,73316.5,2.37,1.79,1.85,0,*7F
1498885263.76,43247,16.0,73316.0,2.37,1.85,1.85,0,*7D
1498885264.98,43248,16.0,73318.3,2.37,1.89,1.89,0,*72
1498885266.21,43249,16.0,73316.5,2.37,1.85,1.89,0,*7F
1498885267.44,43250,16.0,73316.3,2.37,1.89,1.97,0,*74
1498885268.69,43251,16.0,73316.0,2.39,2.01,2.01,0,*74
1498885269.92,43252,16.0,73316.8,2.37,2.01,2.01,0,*79
1498885271.16,43253,16.0,73316.5,2.37,1.97,2.01,0,*74
1498885272.38,43254,16.0,73316.0,2.37,2.01,1.97,0,*73
1498885273.62,43255,16.0,73318.0,2.37,2.01,2.01,0,*7E
1498885274.87,43256,16.0,73316.0,2.39,2.05,2.05,0,*73
1498885276.1,43257,16.0,73318.5,2.37,1.97,1.97,0,*7C
1498885277.33,43258,16.0,73318.0,2.37,1.97,1.97,0,*73
1498885278.56,43259,16.0,73316.8,2.37,1.97,1.97,0,*72
1498885279.81,43260,16.0,73316.5,2.39,1.89,1.93,0,*7D
1498885281.03,43261,16.0,73320.0,2.37,1.89,1.89,0,*79
1498885282.26,43262,16.0,73318.3,2.37,1.85,1.85,0,*7A
1498885283.5,43263,16.0,73318.5,2.37,1.85,1.85,0,*7B
1498885284.73,43264,16.0,73316.5,2.39,1.83,1.93,0,*73
1498885285.97,43265,15.94,73316.0,2.37,1.85,1.85,0,*7D
1498885287.19,43266,16.0,73318.3,2.37,1.85,1.89,0,*72
1498885288.42,43267,16.0,73318.3,2.37,1.89,1.89,0,*7F
1498885289.65,43268,16.0,73316.5,2.37,1.97,1.97,0,*70
1498885290.88,43269,16.0,73316.3,2.37,1.97,2.01,0,*7D
1498885292.11,43270,16.0,73320.0,2.37,2.01,2.01,0,*79
1498885293.34,43271,16.0,73318.3,2.37,2.01,2.01,0,*78
1498885294.6,43272,16.0,73316.3,2.39,2.01,2.05,0,*71
1498885295.84,43273,16.0,73320.8,2.39,1.93,1.97,0,*70
1498885297.1,43274,16.0,73320.3,2.39,1.93,2.01,0,*7B
1498885298.35,43275,16.0,73320.5,2.39,1.93,2.01,0,*7A
1498885299.6,43276,16.0,73320.3,2.39,2.05,2.01,0,*75
1498885300.83,43277,16.0,73322.5,2.37,2.01,2.01,0,*7E
1498885302.06,43278,16.0,73322.5,2.37,2.01,2.01,0,*71
1498885303.32,43279,16.0,73320.3,2.39,2.13,2.13,0,*7E
1498885304.55,43280,16.0,73322.3,2.37,2.09,2.09,0,*76
1498885305.81,43281,16.0,73320.3,2.39,2.13,2.13,0,*79
1498885307.06,43282,16.0,73320.8,2.39,2.01,2.13,0,*79
1498885308.31,43283,16.0,73322.0,2.39,2.05,2.01,0,*7F
1498885309.57,43284,16.0,73320.8,2.39,2.01,2.01,0,*7C
1498885310.82,43285,16.0,73322.0,2.39,2.01,2.05,0,*79
1498885312.07,43286,16.0,73322.8,2.39,2.05,2.05,0,*7E
1498885313.32,43287,16.0,73318.0,2.39,2.13,2.05,0,*78
1498885314.58,43288,16.0,73322.5,2.39,2.01,2.13,0,*73
1498885315.84,43289,16.0,73320.0,2.39,2.13,2.13,0,*71
1498885317.09,43290,16.0,73320.5,2.39,2.05,2.13,0,*7E
1498885318.34,43291,16.0,73322.0,2.39,2.05,2.05,0,*78
1498885319.6,43292,16.0,73320.3,2.39,2.05,2.13,0,*7C
1498885320.84,43293,16.0,73322.5,2.41,2.17,2.17,0,*75
1498885322.08,43294,16.0,73322.0,2.41,2.17,2.21,0,*77
1498885323.33,43295,16.0,73318.3,2.39,2.05,2.13,0,*7B
1498885324.57,43296,16.0,73322.3,2.41,2.09,2.17,0,*7F
1498885325.8,43297,16.0,73320.8,2.41,2.09,2.09,0,*71
1498885327.03,43298,16.0,73322.8,2.41,2.05,2.09,0,*72
1498885328.27,43299,16.0,73322.5,2.41,2.09,2.09,0,*7F
1498885329.5,43300,16.0,73320.0,2.41,2.09,2.09,0,*7E
1498885330.76,43301,16.0,73322.3,2.43,2.05,2.05,0,*7D
1498885331.99,43302,16.0,73322.5,2.41,2.09,2.09,0,*7C
1498885333.25,43303,16.0,73320.8,2.43,2.09,2.09,0,*7F
1498885334.48,43304,15.94,73320.0,2.41,2.05,2.05,0,*7A
1498885335.71,43305,16.0,73322.3,2.41,2.05,2.05,0,*7B
1498885336.94,43306,16.0,73324.5,2.41,2.05,2.05,0,*78
1498885338.2,43307,16.0,73320.3,2.43,2.09,2.09,0,*7B
1498885339.46,43308,16.0,73326.8,2.43,2.09,2.09,0,*74
1498885340.7,43309,16.0,73322.8,2.41,2.09,2.17,0,*78
1498885341.96,43310,16.0,73322.5,2.43,2.09,2.05,0,*71
1498885343.21,43311,16.0,73324.5,2.43,2.05,2.09,0,*70
1498885344.45,43312,16.0,73324.5,2.41,2.05,2.05,0,*7D
1498885345.67,43313,16.0,73322.5,2.41,1.93,1.97,0,*78
1498885346.91,43314,16.0,73320.5,2.41,1.97,1.97,0,*7B
1498885348.16,43315,16.0,73324.0,2.43,1.97,1.97,0,*78
1498885349.39,43316,16.0,73322.5,2.41,1.93,1.93,0,*79
1498885350.65,43317,16.0,73320.5,2.43,1.93,1.93,0,*7A
1498885351.9,43318,16.0,73322.5,2.43,1.97,1.97,0,*75
1498885353.16,43319,16.0,73320.8,2.43,2.05,2.05,0,*74
1498885354.39,43320,16.0,73326.0,2.41,2.05,2.09,0,*70
1498885355.65,43321,16.0,73324.0,2.43,2.09,2.05,0,*73
1498885356.91,43322,16.0,73324.5,2.43,2.05,2.05,0,*7C
1498885358.14,43323,16.0,73322.8,2.41,2.05,2.09,0,*73
1498885359.4,43324,16.0,73320.5,2.43,2.09,2.09,0,*7A
1498885360.66,43325,16.0,73326.3,2.43,2.05,2.09,0,*77
1498885361.92,43326,16.0,73326.3,2.43,2.05,2.05,0,*78
1498885363.17,43327,16.0,73326.0,2.43,1.97,1.97,0,*79
1498885364.43,43328,16.0,73322.8,2.43,1.97,1.97,0,*76
1498885365.69,43329,16.0,73320.0,2.43,1.97,1.97,0,*77
1498885366.92,43330,16.0,73322.3,2.41,2.05,2.09,0,*71
1498885368.18,43331,16.0,73326.5,2.43,2.05,2.05,0,*7E
1498885369.42,43332,16.0,73326.0,2.41,1.97,2.09,0,*7B
1498885370.65,43333,16.0,73326.8,2.41,2.09,2.05,0,*72
1498885371.91,43334,16.0,73324.8,2.43,2.09,2.09,0,*7B
1498885373.17,43335,16.0,73324.3,2.43,2.09,2.09,0,*7A
1498885374.42,43336,16.0,73324.8,2.43,2.09,2.05,0,*75
1498885375.68,43337,16.0,73326.3,2.43,2.05,2.05,0,*78
1498885376.94,43338,16.0,73324.0,2.43,1.97,2.05,0,*7F
1498885378.18,43339,16.0,73326.0,2.41,2.09,2.09,0,*74
1498885379.43,43340,16.0,73324.8,2.43,2.09,2.09,0,*78
1498885380.67,43341,16.0,73330.3,2.41,2.09,2.09,0,*7B
1498885381.94,43342,16.0,73328.0,2.43,2.17,2.17,0,*7A
1498885383.2,43343,16.0,73328.3,2.43,2.17,2.09,0,*74
1498885384.46,43344,16.0,73324.0,2.43,2.05,2.09,0,*70
1498885385.69,43345,16.0,73326.3,2.41,1.97,2.05,0,*77
1498885386.92,43346,16.0,73326.8,2.41,1.71,1.71,0,*7C
1498885388.15,43347,16.0,73324.3,2.41,1.47,1.55,0,*7E
1498885389.4,43348,16.0,73326.0,2.43,1.67,1.67,0,*70
1498885390.59,43349,16.0,73330.0,2.41,1.75,1.75,0,*73
1498885391.83,43350,16.0,73324.8,2.41,1.85,1.85,0,*7B
1498885393.09,43351,16.0,73324.0,2.43,1.85,1.85,0,*78
1498885394.33,43352,16.0,73324.5,2.41,1.85,1.93,0,*7E
1498885395.56,43353,16.0,73324.8,2.41,1.97,1.93,0,*7C
1498885396.74,43354,16.0,73322.8,2.41,1.83,1.83,0,*7F
1498885397.97,43355,16.0,73322.5,2.41,1.67,1.67,0,*7E
1498885399.2,43356,16.0,73324.0,2.41,1.59,1.67,0,*70
1498885400.42,43357,16.0,73322.8,2.41,1.67,1.67,0,*7C
1498885401.67,43358,16.0,73324.5,2.39,1.67,1.71,0,*7B
1498885402.87,43359,16.0,73326.3,2.41,1.75,1.71,0,*76
1498885404.06,43360,16.0,73326.3,2.41,1.75,1.83,0,*71
1498885405.26,43361,16.0,73328.3,2.39,1.79,1.83,0,*73
1498885406.47,43362,16.0,73322.5,2.37,1.79,1.85,0,*78
1498885407.72,43363,16.0,73324.8,2.39,1.93,1.89,0,*7F
1498885408.96,43364,16.0,73326.0,2.37,1.85,1.85,0,*7D
1498885410.19,43365,16.0,73324.3,2.39,1.93,1.83,0,*73
1498885411.37,43366,16.0,73324.3,2.37,1.83,1.79,0,*7A
1498885412.57,43367,16.0,73324.0,2.39,1.79,1.79,0,*70
1498885413.8,43368,16.0,73326.5,2.39,1.79,1.71,0,*77
1498885415.0,43369,16.0,73324.0,2.39,1.79,1.79,0,*7E
1498885416.21,43370,16.0,73326.3,2.39,1.79,1.79,0,*76
1498885417.44,43371,16.0,73322.8,2.39,1.71,1.75,0,*73
1498885418.64,43372,16.0,73324.3,2.39,1.79,1.83,0,*71
1498885419.83,43373,16.0,73322.5,2.37,1.79,1.79,0,*7B
1498885421.05,43374,16.0,73324.5,2.39,1.83,1.89,0,*78
1498885422.25,43375,16.0,73326.8,2.39,1.83,1.79,0,*76
1498885423.45,43376,16.0,73324.0,2.39,1.83,1.79,0,*75
1498885424.64,43377,16.0,73324.5,2.37,1.79,1.83,0,*7A
1498885425.84,43378,16.0,73324.3,2.39,1.83,1.83,0,*7E
1498885427.04,43379,16.0,73328.8,2.39,1.83,1.83,0,*7F
1498885428.25,43380,16.0,73326.8,2.39,1.83,1.79,0,*7C
1498885429.46,43381,16.0,73324.3,2.37,1.85,1.79,0,*75
1498885430.68,43382,16.0,73326.0,2.39,1.83,1.89,0,*71
1498885431.88,43383,16.0,73326.8,2.39,1.79,1.83,0,*7F
1498885433.13,43384,16.0,73326.8,2.39,1.67,1.67,0,*7D
1498885434.39,43385,16.0,73328.8,2.39,1.09,1.17,0,*73
1498885435.62,43386,16.0,73326.0,2.37,0.79,0.91,0,*77
1498885436.86,43387,16.0,73330.3,2.37,1.29,1.29,0,*70
1498885438.08,43388,16.0,73326.0,2.37,1.51,1.59,0,*77
1498885439.3,43389,16.0,73324.3,2.35,1.59,1.59,0,*7C
1498885440.53,43390,16.0,73328.5,2.37,1.63,1.59,0,*7F
1498885441.75,43391,16.0,73326.0,2.35,1.67,1.63,0,*71
1498885442.97,43392,16.0,73328.8,2.35,1.67,1.67,0,*76
1498885444.18,43393,16.0,73324.8,2.37,1.67,1.75,0,*76
1498885445.38,43394,16.0,73324.3,2.37,1.63,1.75,0,*75
1498885446.6,43395,16.0,73328.3,2.37,1.67,1.79,0,*7C
1498885447.8,43396,16.0,73322.8,2.37,1.67,1.75,0,*73
1498885448.98,43397,16.0,73326.5,2.37,1.75,1.75,0,*71
1498885450.19,43398,16.0,73326.5,2.37,1.79,1.85,0,*7D
1498885451.38,43399,16.0,73328.5,2.37,1.75,1.79,0,*73
1498885452.62,43400,16.0,73326.8,2.39,1.67,1.67,0,*76
1498885453.85,43401,16.0,73324.8,2.37,1.59,1.51,0,*71
1498885455.02,43402,16.0,73328.0,2.37,1.41,1.41,0,*7A
1498885456.24,43403,16.0,73324.3,2.35,1.51,1.59,0,*71
1498885457.47,43404,16.0,73328.3,2.35,1.67,1.67,0,*7E
1498885458.69,43405,16.0,73324.3,2.35,1.63,1.63,0,*7F
1498885459.92,43406,16.0,73324.5,2.35,1.63,1.67,0,*78
1498885461.17,43407,16.0,73330.0,2.33,1.63,1.63,0,*7B
1498885462.41,43408,16.0,73324.5,2.33,1.59,1.59,0,*74
1498885463.63,43409,16.0,73328.0,2.35,1.59,1.63,0,*7A
1498885464.89,43410,16.0,73326.3,2.33,1.55,1.59,0,*71
1498885466.11,43411,16.0,73326.0,2.35,1.63,1.63,0,*7A
1498885467.36,43412,16.0,73324.3,2.33,1.63,1.63,0,*7F
1498885468.61,43413,16.0,73324.0,2.33,1.59,1.59,0,*7E
1498885469.86,43414,16.0,73326.5,2.33,1.55,1.55,0,*79
1498885471.08,43415,16.0,73326.5,2.35,1.51,1.47,0,*79
1498885472.34,43416,16.0,73326.3,2.33,1.55,1.55,0,*7B
1498885473.59,43417,16.0,73322.0,2.33,1.59,1.55,0,*76
1498885474.84,43418,16.0,73326.5,2.33,1.59,1.59,0,*75
1498885476.08,43419,16.0,73322.5,2.33,1.63,1.59,0,*7D
1498885477.33,43420,16.0,73324.5,2.33,1.59,1.59,0,*7E
1498885478.58,43421,16.0,73320.8,2.33,1.71,1.71,0,*7F
1498885479.81,43422,16.0,73324.3,2.33,1.71,1.75,0,*78
1498885481.01,43423,16.0,73324.8,2.33,1.75,1.75,0,*7D
1498885482.25,43424,16.0,73326.3,2.33,1.71,1.75,0,*7E
1498885483.45,43425,16.0,73326.3,2.33,1.75,1.75,0,*7B
1498885484.66,43426,16.0,73324.3,2.33,1.75,1.75,0,*78
1498885485.86,43427,16.0,73324.5,2.33,1.83,1.75,0,*70
1498885487.11,43428,16.0,73326.3,2.33,1.71,1.71,0,*76
1498885488.35,43429,16.0,73322.5,2.33,0.75,0.87,0,*7A
1498885489.57,43430,16.0,73322.8,2.27,0.25,0.37,0,*79
1498885490.79,43431,16.0,73324.3,2.27,0.37,0.47,0,*7C
1498885492.0,43432,16.0,73324.0,2.23,0.63,0.55,0,*79
1498885493.22,43433,16.0,73324.0,2.23,0.79,0.79,0,*7D
1498885494.45,43434,16.0,73326.5,2.23,0.91,0.91,0,*7A
1498885495.63,43435,16.0,73324.3,2.23,1.01,1.01,0,*7B
1498885496.89,43436,16.0,73320.5,2.21,1.13,1.13,0,*7A
1498885498.16,43437,16.0,73326.8,2.21,1.17,1.17,0,*7B
1498885499.41,43438,16.0,73326.5,2.21,1.25,1.25,0,*74
1498885500.68,43439,16.0,73322.5,2.21,1.29,1.29,0,*75
1498885501.94,43440,16.0,73324.5,2.21,1.37,1.29,0,*74
1498885503.19,43441,16.0,73324.5,2.21,1.47,1.47,0,*7A
1498885504.44,43442,16.0,73322.0,2.21,1.47,1.47,0,*79
1498885505.7,43443,16.0,73324.0,2.21,1.55,1.51,0,*7C
1498885506.93,43444,16.0,73324.8,2.23,1.55,1.55,0,*7D
1498885508.16,43445,16.0,73324.5,2.23,1.55,1.55,0,*7C
1498885509.38,43446,16.0,73320.8,2.23,1.63,1.67,0,*7B
1498885510.64,43447,16.0,73324.3,2.21,1.63,1.63,0,*7C
1498885511.89,43448,16.0,73328.0,2.21,1.63,1.63,0,*73
1498885513.11,43449,16.0,73324.8,2.23,1.67,1.63,0,*74
1498885514.34,43450,16.0,73324.3,2.23,1.63,1.63,0,*78
1498885515.59,43451,16.0,73326.5,2.21,1.51,1.51,0,*7B
1498885516.84,43452,16.0,73324.0,2.21,1.51,1.51,0,*78
1498885518.1,43453,16.0,73324.3,2.21,1.51,1.51,0,*79
1498885519.36,43454,16.0,73326.3,2.21,1.55,1.51,0,*7A
1498885520.59,43455,16.0,73322.5,2.23,1.55,1.55,0,*7D
1498885521.81,43456,16.0,73326.0,2.23,1.67,1.63,0,*7A
1498885523.06,43457,16.0,73326.0,2.21,1.63,1.67,0,*79
1498885524.32,43458,16.0,73326.8,2.21,1.63,1.67,0,*76
1498885525.57,43459,16.0,73326.5,2.21,1.67,1.67,0,*73
1498885526.79,43460,16.0,73328.0,2.23,1.67,1.67,0,*7B
1498885528.0,43461,16.0,73326.5,2.21,1.75,1.75,0,*78
1498885529.21,43462,16.0,73330.0,2.21,1.75,1.79,0,*77
1498885530.42,43463,16.0,73328.8,2.21,1.75,1.79,0,*76
1498885531.6,43464,16.0,73326.5,2.23,1.75,1.75,0,*7F
1498885532.82,43465,16.0,73330.5,2.23,1.67,1.67,0,*7E
1498885534.02,43466,16.0,73326.5,2.23,1.75,1.63,0,*7A
1498885535.27,43467,16.0,73326.5,2.25,1.67,1.67,0,*7A
1498885536.5,43468,16.0,73326.0,2.23,1.63,1.51,0,*72
1498885537.73,43469,16.0,73326.8,2.23,1.55,1.55,0,*72
1498885538.93,43470,16.0,73326.3,2.23,1.67,1.79,0,*75
1498885540.16,43471,16.0,73328.3,2.23,1.55,1.63,0,*7E
1498885541.4,43472,16.0,73328.5,2.25,1.59,1.59,0,*7E
1498885542.63,43473,16.0,73330.3,2.23,1.63,1.63,0,*79
1498885543.83,43474,16.0,73330.3,2.23,1.67,1.75,0,*7D
1498885545.06,43475,16.0,73330.8,2.21,1.67,1.75,0,*7E
1498885546.24,43476,16.0,73330.3,2.23,1.75,1.75,0,*7C
1498885547.44,43477,16.0,73330.8,2.23,1.67,1.75,0,*7E
1498885548.64,43478,16.0,73332.0,2.23,1.67,1.75,0,*71
1498885549.87,43479,16.0,73328.5,2.23,1.51,1.51,0,*73
1498885551.09,43480,16.0,73328.3,2.23,1.51,1.51,0,*75
1498885552.31,43481,16.0,73330.8,2.23,1.51,1.55,0,*70
1498885553.57,43482,16.0,73332.3,2.21,1.55,1.55,0,*75
1498885554.83,43483,16.0,73328.3,2.21,1.63,1.63,0,*74
1498885556.08,43484,16.0,73332.8,2.21,1.67,1.67,0,*73
1498885557.31,43485,16.0,73328.3,2.21,1.67,1.75,0,*71
1498885558.52,43486,16.0,73330.3,2.25,1.79,1.79,0,*75
1498885559.74,43487,16.0,73328.8,2.23,1.63,1.63,0,*72
1498885560.97,43488,16.0,73334.3,2.23,1.63,1.63,0,*7D
1498885562.2,43489,16.0,73330.0,2.23,1.55,1.67,0,*7D
1498885563.42,43490,16.0,73328.5,2.23,1.63,1.63,0,*74
1498885564.64,43491,16.0,73328.0,2.23,1.67,1.63,0,*71
1498885565.87,43492,16.0,73330.5,2.23,1.63,1.67,0,*72
1498885567.09,43493,16.0,73328.8,2.23,1.67,1.67,0,*77
1498885568.32,43494,16.0,73328.3,2.23,1.63,1.67,0,*74
1498885569.57,43495,16.0,73334.8,2.21,1.67,1.67,0,*73
1498885570.75,43496,16.0,73334.8,2.23,1.75,1.75,0,*72
1498885571.93,43497,16.0,73332.8,2.23,1.75,1.75,0,*73
1498885573.11,43498,16.0,73334.3,2.23,1.75,1.79,0,*70
1498885574.34,43499,16.0,73332.0,2.23,1.85,1.85,0,*7D
1498885575.58,43500,16.0,73330.8,2.25,1.89,1.89,0,*7A
1498885576.8,43501,16.0,73330.3,2.23,1.89,1.89,0,*7D
1498885578.05,43502,16.0,73334.0,2.25,1.89,1.89,0,*78
1498885579.27,43503,16.0,73334.5,2.23,1.89,1.85,0,*73
1498885580.47,43504,16.0,73332.3,2.23,1.83,1.89,0,*72
1498885581.64,43505,16.0,73330.8,2.23,1.83,1.79,0,*7C
1498885582.85,43506,16.0,73334.0,2.23,1.71,1.75,0,*7E
1498885584.03,43507,16.0,73332.8,2.23,1.75,1.79,0,*77
1498885585.21,43508,16.0,73334.8,2.23,1.79,1.75,0,*78
1498885586.41,43509,16.0,73332.8,2.23,1.79,1.85,0,*76
1498885587.6,43510,16.0,73334.0,2.23,1.79,1.79,0,*7D
1498885588.82,43511,16.0,73332.3,2.25,1.89,1.83,0,*70
1498885590.06,43512,16.0,73334.8,2.23,1.85,1.85,0,*7F
1498885591.26,43513,16.0,73332.0,2.23,1.75,1.85,0,*71
1498885592.47,43514,16.0,73332.3,2.25,1.79,1.83,0,*7A
1498885593.68,43515,16.0,73334.0,2.25,1.83,1.83,0,*7E
1498885594.88,43516,16.0,73334.5,2.25,1.83,1.83,0,*7D
1498885596.12,43517,16.0,73332.3,2.25,1.85,1.75,0,*73
1498885597.3,43518,16.0,73336.5,2.23,1.79,1.79,0,*75
1498885598.5,43519,16.0,73336.3,2.25,1.83,1.83,0,*72
1498885599.7,43520,16.0,73334.3,2.25,1.83,1.83,0,*78
1498885600.91,43521,16.0,73338.3,2.25,1.79,1.79,0,*79
1498885602.12,43522,16.0,73332.5,2.25,1.83,1.83,0,*7A
1498885603.33,43523,16.0,73334.8,2.25,1.79,1.79,0,*7B
1498885604.55,43524,16.0,73334.3,2.25,1.67,1.79,0,*73
1498885605.73,43525,16.0,73338.3,2.23,1.75,1.75,0,*7B
1498885606.96,43526,16.0,73336.3,2.23,1.67,1.63,0,*7C
1498885608.16,43527,16.0,73334.3,2.25,1.79,1.79,0,*7F
1498885609.37,43528,16.0,73332.5,2.25,1.79,1.79,0,*70
1498885610.62,43529,16.0,73336.0,2.25,1.67,1.67,0,*71
1498885611.87,43530,16.0,73336.0,2.25,1.67,1.67,0,*79
1498885613.12,43531,16.0,73334.5,2.25,1.59,1.55,0,*74
1498885614.37,43532,16.0,73336.5,2.25,1.59,1.55,0,*77
1498885615.59,43533,16.0,73336.8,2.23,1.51,1.51,0,*7C
1498885616.85,43534,16.0,73340.0,2.25,1.55,1.55,0,*7D
1498885618.1,43535,16.0,73336.5,2.25,1.59,1.55,0,*70
1498885619.35,43536,16.0,73336.5,2.25,1.55,1.59,0,*73
1498885620.58,43537,16.0,73340.5,2.23,1.55,1.55,0,*78
1498885621.84,43538,16.0,73342.8,2.25,1.55,1.55,0,*71
1498885623.06,43539,16.0,73338.3,2.23,1.51,1.51,0,*76
1498885624.29,43540,16.0,73336.8,2.23,1.51,1.51,0,*78
1498885625.54,43541,16.0,73340.5,2.25,1.55,1.51,0,*7B
1498885626.77,43542,16.0,73338.8,2.23,1.55,1.47,0,*79
1498885628.0,43543,16.0,73342.3,2.23,1.55,1.55,0,*7B
1498885629.25,43544,16.0,73340.8,2.25,1.67,1.59,0,*77
1498885630.5,43545,16.0,73338.3,2.25,1.67,1.55,0,*7A
1498885631.73,43546,16.0,73336.3,2.23,1.55,1.55,0,*7E
1498885632.97,43547,16.0,73340.0,2.25,1.67,1.71,0,*7E
1498885634.18,43548,16.0,73338.8,2.23,1.67,1.75,0,*73
1498885635.36,43549,16.0,73340.0,2.23,1.79,1.75,0,*7D
1498885636.56,43550,16.0,73340.3,2.23,1.79,1.85,0,*7A
1498885637.81,43551,16.0,73342.0,2.25,1.89,1.89,0,*7E
1498885639.04,43552,16.0,73336.8,2.23,1.85,1.85,0,*7B
1498885640.29,43553,16.0,73342.5,2.25,1.93,1.93,0,*7C
1498885641.54,43554,16.0,73340.5,2.25,1.93,1.89,0,*70
1498885642.79,43555,16.0,73340.5,2.25,1.93,1.93,0,*7A
1498885644.04,43556,16.0,73338.8,2.25,1.93,1.93,0,*79
1498885645.27,43557,16.0,73340.0,2.23,1.85,1.85,0,*7E
1498885646.48,43558,16.0,73340.3,2.25,1.79,1.79,0,*77
1498885647.73,43559,16.0,73342.5,2.25,1.71,1.71,0,*76
1498885648.94,43560,16.0,73342.8,2.25,1.79,1.79,0,*7C
1498885650.15,43561,16.0,73340.5,2.25,1.79,1.79,0,*7D
1498885651.37,43562,16.0,73340.8,2.23,1.55,1.67,0,*79
1498885652.63,43563,16.0,73342.5,2.25,1.71,1.71,0,*7F
1498885653.85,43564,16.0,73342.5,2.23,1.67,1.67,0,*7E
1498885655.08,43565,16.0,73340.0,2.25,1.71,1.83,0,*74
1498885656.28,43566,16.0,73340.5,2.25,1.83,1.83,0,*7A
1498885657.49,43567,16.0,73342.8,2.25,1.79,1.83,0,*7E
1498885658.7,43568,16.0,73342.5,2.25,1.83,1.83,0,*74
1498885659.9,43569,16.0,73346.5,2.25,1.79,1.83,0,*70
1498885661.13,43570,16.0,73344.0,2.25,1.89,1.83,0,*77
1498885662.34,43571,16.0,73342.8,2.25,1.83,1.83,0,*7C
1498885663.52,43572,16.0,73342.3,2.23,1.79,1.79,0,*79
1498885664.72,43573,16.0,73346.5,2.25,1.83,1.83,0,*7E
1498885665.9,43574,16.0,73346.5,2.27,1.79,1.79,0,*7B
1498885667.14,43575,16.0,73344.8,2.25,1.71,1.79,0,*70
1498885668.39,43576,16.0,73344.3,2.25,1.67,1.67,0,*7B
1498885669.64,43577,16.0,73344.8,2.25,1.51,1.55,0,*7E
1498885670.89,43578,16.0,73344.8,2.25,1.55,1.55,0,*75
1498885672.15,43579,16.0,73344.3,2.25,1.55,1.59,0,*78
1498885673.4,43580,16.0,73344.0,2.25,1.43,1.51,0,*71
1498885674.65,43581,16.0,73346.3,2.25,1.43,1.51,0,*70
1498885675.87,43582,16.0,73342.5,2.23,1.47,1.47,0,*76
1498885677.12,43583,16.0,73346.5,2.25,1.55,1.55,0,*71
1498885678.35,43584,16.0,73346.8,2.23,1.55,1.63,0,*75
1498885679.61,43585,16.0,73346.0,2.25,1.55,1.55,0,*77
1498885680.83,43586,16.0,73346.3,2.23,1.51,1.51,0,*72
1498885682.09,43587,16.0,73348.3,2.25,1.55,1.51,0,*71
1498885683.31,43588,16.0,73346.8,2.23,1.51,1.47,0,*7B
1498885684.54,43589,16.0,73348.8,2.23,1.63,1.55,0,*78
1498885685.77,43590,16.0,73348.3,2.23,1.55,1.55,0,*75
1498885686.99,43591,16.0,73350.5,2.23,1.51,1.51,0,*74
1498885688.25,43592,16.0,73348.8,2.25,1.55,1.51,0,*75
1498885689.5,43593,16.0,73350.5,2.25,1.55,1.51,0,*74
1498885690.72,43594,16.0,73348.5,2.23,1.47,1.47,0,*71
1498885691.95,43595,16.0,73350.0,2.23,1.47,1.51,0,*77
1498885693.17,43596,16.0,73346.5,2.23,1.51,1.55,0,*77
1498885694.39,43597,16.0,73350.3,2.23,1.67,1.63,0,*76
1498885695.62,43598,16.0,73346.0,2.23,1.55,1.51,0,*79
1498885696.85,43599,16.0,73344.8,2.23,1.51,1.55,0,*78
1498885698.1,43600,16.0,73346.8,2.21,1.51,1.51,0,*7D
1498885699.36,43601,16.0,73350.8,2.25,1.55,1.55,0,*78
1498885700.58,43602,16.0,73348.3,2.23,1.51,1.51,0,*7D
1498885701.8,43603,16.0,73348.5,2.23,1.47,1.51,0,*7B
1498885703.02,43604,16.0,73346.3,2.23,1.47,1.47,0,*7B
1498885704.27,43605,16.0,73350.3,2.21,1.47,1.47,0,*78
1498885705.52,43606,16.0,73346.8,2.21,1.47,1.47,0,*7B
1498885706.77,43607,16.0,73346.3,2.21,1.67,1.67,0,*7A
1498885708.03,43608,16.0,73350.8,2.21,1.55,1.55,0,*75
1498885709.23,43609,16.0,73346.8,2.21,1.41,1.41,0,*74
1498885710.5,43610,16.0,73348.5,2.21,1.29,1.37,0,*73
1498885711.75,43611,16.0,73348.3,2.21,1.47,1.43,0,*79
1498885712.97,43612,16.0,73350.3,2.19,1.47,1.51,0,*72
1498885714.23,43613,16.0,73350.0,2.21,1.55,1.63,0,*7A
1498885715.45,43614,16.0,73348.3,2.19,1.63,1.71,0,*70
1498885716.68,43615,16.0,73350.3,2.21,1.67,1.75,0,*7A
1498885717.93,43616,16.0,73350.5,2.21,1.63,1.59,0,*73
1498885719.16,43617,16.0,73348.0,2.19,1.47,1.47,0,*70
1498885720.41,43618,16.0,73348.8,2.21,1.51,1.51,0,*74
1498885721.63,43619,16.0,73352.3,2.19,1.51,1.47,0,*79
1498885722.89,43620,16.0,73350.5,2.21,1.55,1.55,0,*7F
1498885724.12,43621,16.0,73352.5,2.23,1.55,1.55,0,*7C
1498885725.38,43622,16.0,73348.8,2.21,1.55,1.55,0,*7D
1498885726.64,43623,16.0,73348.3,2.21,1.55,1.63,0,*79
1498885727.89,43624,16.0,73348.3,2.21,1.63,1.55,0,*7E
1498885729.14,43625,16.0,73350.5,2.21,1.51,1.51,0,*7A
1498885730.4,43626,16.0,73350.8,2.21,1.47,1.55,0,*7A
1498885731.65,43627,16.0,73348.8,2.21,1.43,1.51,0,*7B
1498885732.9,43628,16.0,73350.5,2.21,1.47,1.47,0,*77
1498885734.12,43629,16.0,73350.3,2.23,1.47,1.47,0,*74
1498885735.36,43630,16.0,73346.8,2.21,0.67,0.51,0,*7B
1498885736.6,43631,16.0,73348.0,2.21,0.29,0.17,0,*72
1498885737.79,43632,16.0,73348.5,2.15,0.25,0.09,0,*45
1498885739.0,43633,16.0,73348.3,2.15,0.37,0.25,0,*79
1498885740.22,43634,16.0,73350.3,2.15,0.59,0.55,0,*71
1498885741.45,43635,16.0,73348.0,2.13,0.67,0.67,0,*7A
1498885742.68,43636,16.0,73348.8,2.13,-0.23,-0.19,0,*70
1498885743.89,43637,16.0,73350.0,2.11,0.33,0.41,0,*7F
1498885745.11,43638,16.0,73348.3,2.11,0.79,0.67,0,*7A
1498885746.33,43639,16.0,73350.3,2.07,0.55,0.41,0,*76
1498885747.57,43640,16.0,73350.5,2.05,0.59,0.59,0,*7F